This demonstration page uses our WeatherBlox Daily Observations layout. Learn more.

38.89511, -77.03637

Hourly Observations for August 30, 2015

Temp ( °F °C ) Dew Point ( °F °C ) Humidity (%) Winds ( mph kmh ) Pressure ( in mb ) Visibility ( mi km ) Precip ( " mm )
12:52 am 00:52 Mostly Cloudy 73 23 64 18 74 74 S 12 19 30.12 1020 10 16.09344 0 0
1:52 am 01:52 Mostly Cloudy 72 22 64 18 78 78 S 8 13 30.12 1020 10 16.09344 0 0
2:52 am 02:52 Mostly Cloudy 72 22 64 18 78 78 S 9 15 30.09 1019 10 16.09344 0 0
3:52 am 03:52 Mostly Cloudy 72 22 64 18 78 78 S 9 15 30.09 1019 10 16.09344 0 0
4:52 am 04:52 Mostly Cloudy 70 21 64 18 83 83 SSW 7 11 30.09 1019 10 16.09344 0 0
5:52 am 05:52 Mostly Cloudy 70 21 64 18 83 83 SSW 5 7 30.12 1020 10 16.09344 0 0
6:52 am 06:52 Mostly Cloudy 70 21 64 18 83 83 SSW 5 7 30.12 1020 10 16.09344 0 0
7:52 am 07:52 Mostly Cloudy 72 22 64 18 78 78 SSW 8 13 30.12 1020 10 16.09344 0 0
8:52 am 08:52 Cloudy 73 23 64 18 74 74 SW 7 11 30.12 1020 10 16.09344 0 0
9:52 am 09:52 Cloudy 73 23 64 18 74 74 SSW 5 7 30.15 1021 10 16.09344 0 0
10:52 am 10:52 Cloudy 75 24 64 18 69 69 SSW 6 9 30.15 1021 10 16.09344 0 0
11:52 am 11:52 Cloudy 77 25 66 19 69 69 S 8 13 30.15 1021 10 16.09344 0 0
12:52 pm 12:52 Cloudy 79 26 66 19 65 65 S 7 11 30.12 1020 10 16.09344 0 0
1:52 pm 13:52 Mostly Cloudy 82 28 68 20 62 62 S 8 13 30.12 1020 10 16.09344 0 0
2:52 pm 14:52 Mostly Cloudy 84 29 68 20 58 58 S 7 11 30.09 1019 10 16.09344 0 0
3:52 pm 15:52 Mostly Cloudy 86 30 64 18 49 49 SSE 7 11 30.06 1018 10 16.09344 0 0
4:52 pm 16:52 Mostly Cloudy 86 30 66 19 52 52 S 10 17 30.06 1018 10 16.09344 0 0
5:52 pm 17:52 Cloudy 86 30 66 19 52 52 SW 8 13 30.06 1018 10 16.09344 0 0
6:52 pm 18:52 Cloudy 82 28 66 19 58 58 S 8 13 30.06 1018 10 16.09344 0 0
7:52 pm 19:52 Cloudy 81 27 70 21 70 70 S 6 9 30.06 1018 10 16.09344 0 0
8:52 pm 20:52 Cloudy 81 27 70 21 70 70 S 9 15 30.09 1019 10 16.09344 0 0
9:52 pm 21:52 Cloudy 81 27 66 19 62 62 S 10 17 30.09 1019 10 16.09344 0 0
10:52 pm 22:52 Cloudy 81 27 66 19 62 62 S 9 15 30.09 1019 10 16.09344 0 0
11:52 pm 23:52 Cloudy 79 26 66 19 65 65 SSW 9 15 30.09 1019 10 16.09344 0 0

Powered by AerisWeather